STARLINK-34559, 64706

Orbit data source: Space-Track

STARLINK-34559, 64706 is a payload satellite owned by SpaceX/Seattle (US) in LEO that was launched on Sat, 28 Jun 2025 UTC via an FALCON 9 launch vehicle from the Air Force Western Test Range (AFWTR). Payload-class satellites include a variety of spacecraft equipped with specific instruments for various scientific and technological missions. These include communications satellites like Starlink; space stations such as the ISS; scientific satellites like the Hubble; Earth observation satellites from companies like Planet Labs, Umbra, and HawkEye 360; GPS; miniature CubeSats for education and research; and military/defense satellites.

Loading next visibility...
Identifier
64706, 2025-142L
Orbit
LEO
Country
Flag of USUS
Related business
Manufacturer
SpaceX/Seattle
Mission
Operational Commercial Communications
Bus & Motor
STARLINK V2MO, Unknown motor
Mass
575 kg wet, ~530 kg dry
Launch date (UTC)
2025-06-28 (11 months ago)
Launch vehicle
FALCON 9
Launch site
Air Force Western Test Range (AFWTR)
Object type
Payload
Rocket body
Debris
Shape & HBR
Box + 2 Pan, 17.7 m
Radar Cross Section
36.964 m², Large (>1 m²)

Expand to show TLE details & history
Last TLE update: 11 hours ago

TLE from 11 hours ago
0 STARLINK-34559
1 64706U 25142L   26145.33793949  .00000879  00000-0  81450-4 0  9998
2 64706  69.9998 121.1310 0004026 265.4666  94.6033 14.98337437 50976
Epoch: 2026-05-25T08:06Z
TLE epoch observation values (Epoch: 2026-05-25T08:06:37.971Z)
Latitude
-0.00007°
Longitude
116.54559°
Altitude
574.682 km
Speed
7.574 km/s
True Right ascension
08h 04m 31s
True Declination
0° 00' 00"
Sunlit
Object was in daylight at epoch
Visualization orbit readout
Latitude
Unknown
Longitude
Unknown
Altitude
Unknown
Speed
Unknown
Apparent Right ascension
Unknown
Apparent Declination
Unknown
Sunlit
N/A
Visualization observer readout
Local Sidereal Time
03:57:59
Azimuth
Unknown
Elevation
Unknown
Doppler factor
Unknown
Orbital elements
Apogee altitude
572.778 km
Perigee altitude
567.184 km
Semi-major axis
6,948.118 km
Eccentricity
0.0004
Inclination
69.9998°
RAAN
121.131°
Arg. of periapsis
265.4666°
True anomaly
94.64928°
Mean anomaly
94.6033°
Eccentric anomaly
94.62629°
Mean motion
3.74751 °/min
Orbital period
96.06 mins
BSTAR
0.00008145
Loading maneuver chart data...
Computing Atmospheric mass density...
Loading historical data...
Loading historical data...
Loading historical data...
Loading historical data...
Loading historical data...
Loading historical data...
Loading historical data...

Documentation

Showing up to 5 results
|